FENGYUN 1C DEB, 30059

Orbit data source: Space-Track

FENGYUN 1C DEB, 30059 is space debris in SSO originally from a launch on Mon, 10 May 1999 UTC launched from the Taiyaun Space Center, China (TSC). Fengyun 1C debris stems from the Chinese weather satellite Fengyun-1C, which was intentionally destroyed by a Chinese anti-satellite missile in 2007. This event dramatically increased the amount of space debris, with thousands of trackable fragments posing hazards to satellites and human spaceflight. The Fengyun 1C debris cloud has become a focal point in discussions about space sustainability and the need for international regulations to prevent the creation of new debris.

Loading next visibility...
Identifier
30059, 1999-025PL
Orbit
SSO
Country
Flag of CNCN / PRC
Related business
Manufacturer
Unknown
Mission
Spacecraft
Bus & Motor
Unknown
Mass
Unknown
Launch date (UTC)
1999-05-10 (27 years ago)
Launch vehicle
Unknown
Launch site
Taiyaun Space Center, China (TSC)
Object type
Payload
Rocket body
Debris
Shape & HBR
Unknown shape, 0.1 m
Radar Cross Section
Medium (>0.1 m² and <1 m²)

Expand to show TLE details & history
Last TLE update: 14 hours ago

TLE from 14 hours ago
0 FENGYUN 1C DEB
1 30059U 99025PL  26150.87997515  .00000221  00000-0  31788-3 0  9992
2 30059  98.8367 131.2061 0325853 233.3803 154.0323 13.45589761950722
Epoch: 2026-05-30T21:07Z
TLE epoch observation values (Epoch: 2026-05-30T21:07:09.852Z)
Latitude
28.65533°
Longitude
-78.8239°
Altitude
1,312.217 km
Speed
7.096 km/s
True Right ascension
08h 25m 25s
True Declination
28° 31' 17"
Sunlit
Object was in daylight at epoch
Visualization orbit readout
Latitude
Unknown
Longitude
Unknown
Altitude
Unknown
Speed
Unknown
Apparent Right ascension
Unknown
Apparent Declination
Unknown
Sunlit
N/A
Visualization observer readout
Local Sidereal Time
21:01:45
Azimuth
Unknown
Elevation
Unknown
Doppler factor
Unknown
Orbital elements
Apogee altitude
1,329.004 km
Perigee altitude
842.575 km
Semi-major axis
7,463.927 km
Eccentricity
0.03259
Inclination
98.8367°
RAAN
131.2061°
Arg. of periapsis
233.3803°
True anomaly
155.60925°
Mean anomaly
154.0323°
Eccentric anomaly
154.82645°
Mean motion
3.36583 °/min
Orbital period
106.96 mins
BSTAR
0.00031788
Loading maneuver chart data...
Computing Atmospheric mass density...
Loading historical data...
Loading historical data...
Loading historical data...
Loading historical data...
Loading historical data...
Loading historical data...
Loading historical data...

Documentation

Showing up to 5 results
|